Year,Month,Day,Hour,Minute,Value (Times are PST for temperature in C)
2005,08,18,00,00,12.30
2005,08,18,00,01,12.30
2005,08,18,00,02,12.30
2005,08,18,00,03,12.30
2005,08,18,00,04,12.30
2005,08,18,00,05,12.20
2005,08,18,00,06,12.20
2005,08,18,00,07,12.20
2005,08,18,00,08,12.20
2005,08,18,00,09,12.10
2005,08,18,00,10,12.10
2005,08,18,00,11,12.10
2005,08,18,00,13,12.00
2005,08,18,00,14,12.00
2005,08,18,00,15,11.90
2005,08,18,00,20,11.90
2005,08,18,00,22,12.00
2005,08,18,00,25,12.00
2005,08,18,00,26,12.00
2005,08,18,00,27,12.00
2005,08,18,00,31,11.90
2005,08,18,00,34,11.90
2005,08,18,00,38,12.00
2005,08,18,00,39,12.00
2005,08,18,00,40,12.00
2005,08,18,00,41,12.00
2005,08,18,00,45,12.10
2005,08,18,00,50,12.30
2005,08,18,00,51,12.30
2005,08,18,00,54,12.40
2005,08,18,00,55,12.50
2005,08,18,00,59,12.60
2005,08,18,01,02,12.60
2005,08,18,01,06,12.80
2005,08,18,01,07,12.80
2005,08,18,01,08,12.80
2005,08,18,01,09,12.80
2005,08,18,01,11,12.80
2005,08,18,01,12,12.80
2005,08,18,01,14,12.90
2005,08,18,01,15,12.90
2005,08,18,01,16,13.00
2005,08,18,01,17,13.00
2005,08,18,01,18,13.00
2005,08,18,01,19,13.00
2005,08,18,01,20,13.10
2005,08,18,01,21,13.10
2005,08,18,01,22,13.10
2005,08,18,01,23,13.10
2005,08,18,01,24,13.10
2005,08,18,01,25,13.10
2005,08,18,01,26,13.10
2005,08,18,01,29,13.10
2005,08,18,01,32,13.00
2005,08,18,01,34,13.00
2005,08,18,01,36,13.00
2005,08,18,01,37,12.90
2005,08,18,01,38,12.90
2005,08,18,01,39,12.90
2005,08,18,01,40,12.90
2005,08,18,01,41,12.90
2005,08,18,01,42,12.90
2005,08,18,01,43,12.90
2005,08,18,01,47,12.90
2005,08,18,01,50,12.80
2005,08,18,01,53,12.80
2005,08,18,01,54,12.80
2005,08,18,01,56,12.80
2005,08,18,01,58,12.80
2005,08,18,02,01,12.80
2005,08,18,02,04,12.80
2005,08,18,02,06,12.80
2005,08,18,02,07,12.80
2005,08,18,02,08,12.80
2005,08,18,02,09,12.80
2005,08,18,02,10,12.80
2005,08,18,02,14,12.80
2005,08,18,02,17,12.80
2005,08,18,02,25,12.70
2005,08,18,02,30,12.60
2005,08,18,02,32,12.60
2005,08,18,02,34,12.70
2005,08,18,02,35,12.70
2005,08,18,02,37,12.70
2005,08,18,02,38,12.70
2005,08,18,02,39,12.60
2005,08,18,02,40,12.60
2005,08,18,02,41,12.60
2005,08,18,02,42,12.60
2005,08,18,02,43,12.60
2005,08,18,02,44,12.60
2005,08,18,02,45,12.60
2005,08,18,02,46,12.60
2005,08,18,02,47,12.60
2005,08,18,02,48,12.60
2005,08,18,02,49,12.60
2005,08,18,02,50,12.60
2005,08,18,02,51,12.60
2005,08,18,02,52,12.60
2005,08,18,02,53,12.50
2005,08,18,02,54,12.50
2005,08,18,02,55,12.50
2005,08,18,02,56,12.50
2005,08,18,02,57,12.50
2005,08,18,02,58,12.50
2005,08,18,02,59,12.60
2005,08,18,03,00,12.60
2005,08,18,03,01,12.50
2005,08,18,03,02,12.50
2005,08,18,03,03,12.50
2005,08,18,03,04,12.50
2005,08,18,03,05,12.50
2005,08,18,03,06,12.50
2005,08,18,03,07,12.50
2005,08,18,03,08,12.50
2005,08,18,03,09,12.50
2005,08,18,03,10,12.50
2005,08,18,03,11,12.50
2005,08,18,03,12,12.50
2005,08,18,03,13,12.50
2005,08,18,03,14,12.50
2005,08,18,03,15,12.50
2005,08,18,03,16,12.50
2005,08,18,03,17,12.50
2005,08,18,03,18,12.50
2005,08,18,03,19,12.50
2005,08,18,03,20,12.50
2005,08,18,03,21,12.50
2005,08,18,03,22,12.50
2005,08,18,03,23,12.50
2005,08,18,03,24,12.50
2005,08,18,03,25,12.50
2005,08,18,03,26,12.50
2005,08,18,03,27,12.50
2005,08,18,03,28,12.50
2005,08,18,03,29,12.50
2005,08,18,03,30,12.50
2005,08,18,03,31,12.50
2005,08,18,03,32,12.50
2005,08,18,03,33,12.50
2005,08,18,03,34,12.50
2005,08,18,03,35,12.50
2005,08,18,03,36,12.50
2005,08,18,03,37,12.50
2005,08,18,03,38,12.50
2005,08,18,03,39,12.40
2005,08,18,03,40,12.40
2005,08,18,03,41,12.40
2005,08,18,03,42,12.30
2005,08,18,03,43,12.30
2005,08,18,03,44,12.30
2005,08,18,03,45,12.30
2005,08,18,03,46,12.30
2005,08,18,03,47,12.20
2005,08,18,03,48,12.20
2005,08,18,03,49,12.20
2005,08,18,03,50,12.10
2005,08,18,03,51,12.10
2005,08,18,03,52,12.00
2005,08,18,03,53,11.90
2005,08,18,03,54,11.90
2005,08,18,03,55,11.90
2005,08,18,03,56,11.80
2005,08,18,03,57,11.80
2005,08,18,03,58,11.80
2005,08,18,03,59,11.80
2005,08,18,04,00,11.80
2005,08,18,04,01,11.70
2005,08,18,04,02,11.70
2005,08,18,04,03,11.70
2005,08,18,04,04,11.60
2005,08,18,04,05,11.60
2005,08,18,04,06,11.60
2005,08,18,04,07,11.60
2005,08,18,04,08,11.60
2005,08,18,04,09,11.60
2005,08,18,04,10,11.60
2005,08,18,04,11,11.60
2005,08,18,04,12,11.50
2005,08,18,04,13,11.40
2005,08,18,04,14,11.40
2005,08,18,04,15,11.40
2005,08,18,04,16,11.40
2005,08,18,04,17,11.40
2005,08,18,04,18,11.40
2005,08,18,04,19,11.40
2005,08,18,04,20,11.40
2005,08,18,04,21,11.40
2005,08,18,04,22,11.40
2005,08,18,04,23,11.40
2005,08,18,04,24,11.40
2005,08,18,04,25,11.40
2005,08,18,04,26,11.40
2005,08,18,04,27,11.40
2005,08,18,04,28,11.40
2005,08,18,04,29,11.40
2005,08,18,04,30,11.40
2005,08,18,04,31,11.30
2005,08,18,04,32,11.30
2005,08,18,04,33,11.30
2005,08,18,04,34,11.30
2005,08,18,04,35,11.30
2005,08,18,04,36,11.30
2005,08,18,04,37,11.30
2005,08,18,04,38,11.30
2005,08,18,04,39,11.30
2005,08,18,04,40,11.30
2005,08,18,04,41,11.30
2005,08,18,04,42,11.30
2005,08,18,04,43,11.30
2005,08,18,04,44,11.30
2005,08,18,04,45,11.30
2005,08,18,04,46,11.30
2005,08,18,04,47,11.30
2005,08,18,04,48,11.30
2005,08,18,04,49,11.30
2005,08,18,04,50,11.30
2005,08,18,04,51,11.30
2005,08,18,04,52,11.30
2005,08,18,04,53,11.30
2005,08,18,04,54,11.30
2005,08,18,04,55,11.30
2005,08,18,04,56,11.30
2005,08,18,04,57,11.30
2005,08,18,04,58,11.30
2005,08,18,04,59,11.30
2005,08,18,05,00,11.30
2005,08,18,05,01,11.30
2005,08,18,05,02,11.40
2005,08,18,05,03,11.40
2005,08,18,05,04,11.40
2005,08,18,05,05,11.40
2005,08,18,05,06,11.40
2005,08,18,05,07,11.40
2005,08,18,05,08,11.40
2005,08,18,05,09,11.40
2005,08,18,05,10,11.40
2005,08,18,05,11,11.40
2005,08,18,05,12,11.40
2005,08,18,05,13,11.40
2005,08,18,05,14,11.40
2005,08,18,05,15,11.40
2005,08,18,05,16,11.40
2005,08,18,05,17,11.40
2005,08,18,05,18,11.60
2005,08,18,05,19,11.60
2005,08,18,05,20,11.60
2005,08,18,05,21,11.60
2005,08,18,05,22,11.60
2005,08,18,05,23,11.60
2005,08,18,05,24,11.60
2005,08,18,05,25,11.60
2005,08,18,05,26,11.60
2005,08,18,05,27,11.60
2005,08,18,05,28,11.60
2005,08,18,05,29,11.60
2005,08,18,05,30,11.60
2005,08,18,05,31,11.60
2005,08,18,05,32,11.60
2005,08,18,05,33,11.60
2005,08,18,05,34,11.60
2005,08,18,05,35,11.70
2005,08,18,05,36,11.70
2005,08,18,05,37,11.70
2005,08,18,05,38,11.70
2005,08,18,05,39,11.70
2005,08,18,05,40,11.70
2005,08,18,05,41,11.70
2005,08,18,05,42,11.70
2005,08,18,05,43,11.70
2005,08,18,05,44,11.70
2005,08,18,05,45,11.70
2005,08,18,05,46,11.70
2005,08,18,05,47,11.70
2005,08,18,05,48,11.70
2005,08,18,05,49,11.70
2005,08,18,05,50,11.70
2005,08,18,05,51,11.70
2005,08,18,05,52,11.70
2005,08,18,05,53,11.70
2005,08,18,05,54,11.70
2005,08,18,05,55,11.70
2005,08,18,05,56,11.70
2005,08,18,05,57,11.70
2005,08,18,05,58,11.70
2005,08,18,05,59,11.70
2005,08,18,06,00,11.70
2005,08,18,06,01,11.70
2005,08,18,06,02,11.70
2005,08,18,06,03,11.70
2005,08,18,06,04,11.70
2005,08,18,06,05,11.70
2005,08,18,06,06,11.70
2005,08,18,06,07,11.70
2005,08,18,06,08,11.70
2005,08,18,06,09,11.70
2005,08,18,06,10,11.70
2005,08,18,06,11,11.70
2005,08,18,06,12,11.70
2005,08,18,06,13,11.70
2005,08,18,06,14,11.70
2005,08,18,06,15,11.70
2005,08,18,06,16,11.70
2005,08,18,06,17,11.70
2005,08,18,06,18,11.80
2005,08,18,06,19,11.80
2005,08,18,06,20,11.80
2005,08,18,06,21,11.80
2005,08,18,06,22,11.80
2005,08,18,06,23,11.80
2005,08,18,06,24,11.80
2005,08,18,06,25,11.80
2005,08,18,06,26,11.80
2005,08,18,06,27,11.80
2005,08,18,06,28,11.90
2005,08,18,06,29,11.90
2005,08,18,06,30,11.90
2005,08,18,06,31,11.90
2005,08,18,06,32,11.90
2005,08,18,06,33,11.90
2005,08,18,06,34,11.90
2005,08,18,06,35,11.90
2005,08,18,06,36,11.90
2005,08,18,06,37,11.90
2005,08,18,06,38,11.90
2005,08,18,06,39,12.00
2005,08,18,06,40,12.00
2005,08,18,06,41,12.00
2005,08,18,06,42,12.00
2005,08,18,06,43,12.00
2005,08,18,06,44,12.00
2005,08,18,06,45,12.10
2005,08,18,06,46,12.10
2005,08,18,06,47,12.10
2005,08,18,06,48,12.20
2005,08,18,06,49,12.20
2005,08,18,06,50,12.30
2005,08,18,06,51,12.30
2005,08,18,06,52,12.30
2005,08,18,06,53,12.30
2005,08,18,06,54,12.30
2005,08,18,06,55,12.30
2005,08,18,06,56,12.30
2005,08,18,06,57,12.40
2005,08,18,06,58,12.40
2005,08,18,06,59,12.50
2005,08,18,07,00,12.50
2005,08,18,07,01,12.50
2005,08,18,07,02,12.60
2005,08,18,07,03,12.60
2005,08,18,07,04,12.60
2005,08,18,07,05,12.60
2005,08,18,07,06,12.60
2005,08,18,07,07,12.60
2005,08,18,07,08,12.60
2005,08,18,07,09,12.70
2005,08,18,07,10,12.70
2005,08,18,07,11,12.70
2005,08,18,07,12,12.70
2005,08,18,07,13,12.70
2005,08,18,07,14,12.70
2005,08,18,07,15,12.70
2005,08,18,07,16,12.70
2005,08,18,07,17,12.80
2005,08,18,07,18,12.80
2005,08,18,07,19,12.80
2005,08,18,07,20,12.80
2005,08,18,07,21,12.80
2005,08,18,07,22,12.80
2005,08,18,07,23,12.80
2005,08,18,07,24,12.80
2005,08,18,07,25,12.90
2005,08,18,07,26,12.90
2005,08,18,07,27,12.90
2005,08,18,07,28,13.00
2005,08,18,07,29,13.00
2005,08,18,07,30,13.00
2005,08,18,07,31,13.00
2005,08,18,07,32,13.00
2005,08,18,07,33,13.00
2005,08,18,07,34,13.00
2005,08,18,07,35,13.00
2005,08,18,07,36,13.00
2005,08,18,07,37,13.00
2005,08,18,07,38,13.00
2005,08,18,07,39,13.00
2005,08,18,07,40,13.00
2005,08,18,07,41,13.00
2005,08,18,07,42,13.10
2005,08,18,07,43,13.10
2005,08,18,07,44,13.10
2005,08,18,07,45,13.20
2005,08,18,07,46,13.20
2005,08,18,07,47,13.10
2005,08,18,07,48,13.10
2005,08,18,07,49,13.10
2005,08,18,07,50,13.10
2005,08,18,07,51,13.10
2005,08,18,07,52,13.20
2005,08,18,07,53,13.20
2005,08,18,07,54,13.20
2005,08,18,07,55,13.20
2005,08,18,07,56,13.30
2005,08,18,07,57,13.30
2005,08,18,07,58,13.30
2005,08,18,07,59,13.40
2005,08,18,08,00,13.40
2005,08,18,08,01,13.50
2005,08,18,08,02,13.60
2005,08,18,08,03,13.60
2005,08,18,08,04,13.70
2005,08,18,08,05,13.70
2005,08,18,08,06,13.70
2005,08,18,08,07,13.70
2005,08,18,08,08,13.70
2005,08,18,08,09,13.70
2005,08,18,08,10,13.70
2005,08,18,08,11,13.70
2005,08,18,08,12,13.70
2005,08,18,08,13,13.60
2005,08,18,08,14,13.60
2005,08,18,08,15,13.60
2005,08,18,08,16,13.60
2005,08,18,08,17,13.60
2005,08,18,08,18,13.60
2005,08,18,08,19,13.60
2005,08,18,08,20,13.60
2005,08,18,08,21,13.50
2005,08,18,08,22,13.40
2005,08,18,08,23,13.40
2005,08,18,08,24,13.40
2005,08,18,08,25,13.30
2005,08,18,08,26,13.30
2005,08,18,08,27,13.30
2005,08,18,08,28,13.30
2005,08,18,08,29,13.40
2005,08,18,08,30,13.40
2005,08,18,08,31,13.50
2005,08,18,08,32,13.50
2005,08,18,08,33,13.60
2005,08,18,08,34,13.60
2005,08,18,08,35,13.70
2005,08,18,08,36,13.70
2005,08,18,08,37,13.70
2005,08,18,08,38,13.60
2005,08,18,08,39,13.60
2005,08,18,08,40,13.70
2005,08,18,08,41,13.70
2005,08,18,08,42,13.80
2005,08,18,08,43,13.80
2005,08,18,08,44,13.80
2005,08,18,08,45,13.70
2005,08,18,08,46,13.70
2005,08,18,08,47,13.60
2005,08,18,08,48,13.60
2005,08,18,08,49,13.60
2005,08,18,08,50,13.60
2005,08,18,08,51,13.50
2005,08,18,08,52,13.50
2005,08,18,08,53,13.50
2005,08,18,08,54,13.50
2005,08,18,08,55,13.50
2005,08,18,08,56,13.60
2005,08,18,08,57,13.60
2005,08,18,08,58,13.70
2005,08,18,08,59,13.70
2005,08,18,09,00,13.80
2005,08,18,09,01,13.90
2005,08,18,09,02,14.00
2005,08,18,09,03,14.10
2005,08,18,09,04,14.20
2005,08,18,09,05,14.20
2005,08,18,09,06,14.40
2005,08,18,09,07,14.50
2005,08,18,09,08,14.50
2005,08,18,09,09,14.60
2005,08,18,09,10,14.70
2005,08,18,09,11,14.80
2005,08,18,09,12,14.80
2005,08,18,09,13,14.90
2005,08,18,09,14,15.00
2005,08,18,09,15,15.00
2005,08,18,09,16,15.10
2005,08,18,09,17,15.20
2005,08,18,09,18,15.30
2005,08,18,09,19,15.30
2005,08,18,09,20,15.30
2005,08,18,09,21,15.40
2005,08,18,09,22,15.40
2005,08,18,09,23,15.50
2005,08,18,09,24,15.50
2005,08,18,09,25,15.60
2005,08,18,09,26,15.60
2005,08,18,09,27,15.70
2005,08,18,09,28,15.80
2005,08,18,09,29,15.80
2005,08,18,09,30,15.80
2005,08,18,09,31,15.90
2005,08,18,09,32,15.90
2005,08,18,09,33,15.90
2005,08,18,09,34,15.90
2005,08,18,09,35,16.00
2005,08,18,09,36,16.10
2005,08,18,09,37,16.10
2005,08,18,09,38,16.10
2005,08,18,09,39,16.10
2005,08,18,09,40,15.90
2005,08,18,09,41,15.80
2005,08,18,09,42,15.60
2005,08,18,09,43,15.40
2005,08,18,09,44,15.30
2005,08,18,09,45,15.20
2005,08,18,09,46,15.20
2005,08,18,09,47,15.30
2005,08,18,09,48,15.40
2005,08,18,09,49,15.60
2005,08,18,09,50,15.60
2005,08,18,09,51,15.70
2005,08,18,09,52,15.70
2005,08,18,09,53,15.70
2005,08,18,09,54,15.60
2005,08,18,09,55,15.60
2005,08,18,09,56,15.60
2005,08,18,09,57,15.50
2005,08,18,09,58,15.40
2005,08,18,09,59,15.40
2005,08,18,10,00,15.40
2005,08,18,10,01,15.50
2005,08,18,10,02,15.60
2005,08,18,10,03,15.70
2005,08,18,10,04,15.80
2005,08,18,10,05,15.90
2005,08,18,10,06,16.00
2005,08,18,10,07,16.20
2005,08,18,10,08,16.20
2005,08,18,10,09,16.30
2005,08,18,10,10,16.30
2005,08,18,10,11,16.40
2005,08,18,10,12,16.40
2005,08,18,10,13,16.40
2005,08,18,10,14,16.50
2005,08,18,10,15,16.60
2005,08,18,10,16,16.70
2005,08,18,10,17,16.40
2005,08,18,10,18,16.20
2005,08,18,10,19,16.10
2005,08,18,10,20,16.00
2005,08,18,10,21,15.90
2005,08,18,10,22,15.80
2005,08,18,10,23,15.80
2005,08,18,10,24,15.80
2005,08,18,10,25,15.70
2005,08,18,10,26,15.70
2005,08,18,10,27,15.60
2005,08,18,10,28,15.60
2005,08,18,10,29,15.60
2005,08,18,10,30,15.60
2005,08,18,10,31,15.60
2005,08,18,10,32,15.60
2005,08,18,10,33,15.50
2005,08,18,10,34,15.50
2005,08,18,10,35,15.50
2005,08,18,10,36,15.40
2005,08,18,10,37,15.30
2005,08,18,10,38,15.30
2005,08,18,10,39,15.50
2005,08,18,10,40,15.60
2005,08,18,10,41,15.60
2005,08,18,10,42,15.70
2005,08,18,10,43,15.80
2005,08,18,10,44,15.80
2005,08,18,10,45,15.90
2005,08,18,10,46,15.90
2005,08,18,10,47,15.80
2005,08,18,10,48,15.80
2005,08,18,10,49,15.80
2005,08,18,10,50,15.80
2005,08,18,10,51,15.80
2005,08,18,10,52,15.80
2005,08,18,10,53,15.80
2005,08,18,10,54,15.90
2005,08,18,10,55,16.10
2005,08,18,10,56,16.10
2005,08,18,10,57,16.10
2005,08,18,10,58,16.10
2005,08,18,10,59,16.10
2005,08,18,11,00,16.10
2005,08,18,11,01,16.10
2005,08,18,11,02,16.10
2005,08,18,11,03,16.10
2005,08,18,11,04,16.20
2005,08,18,11,05,16.20
2005,08,18,11,06,16.30
2005,08,18,11,07,16.30
2005,08,18,11,08,16.40
2005,08,18,11,09,16.50
2005,08,18,11,10,16.60
2005,08,18,11,11,16.70
2005,08,18,11,12,16.80
2005,08,18,11,13,16.90
2005,08,18,11,14,17.00
2005,08,18,11,15,17.20
2005,08,18,11,16,17.20
2005,08,18,11,17,17.30
2005,08,18,11,18,17.30
2005,08,18,11,19,17.40
2005,08,18,11,20,17.40
2005,08,18,11,21,17.40
2005,08,18,11,22,17.40
2005,08,18,11,23,17.40
2005,08,18,11,24,17.30
2005,08,18,11,25,17.30
2005,08,18,11,26,17.30
2005,08,18,11,27,17.40
2005,08,18,11,28,17.40
2005,08,18,11,29,17.50
2005,08,18,11,30,17.60
2005,08,18,11,31,17.70
2005,08,18,11,32,17.70
2005,08,18,11,33,17.60
2005,08,18,11,34,17.70
2005,08,18,11,35,17.80
2005,08,18,11,36,17.80
2005,08,18,11,37,17.70
2005,08,18,11,38,17.70
2005,08,18,11,39,17.70
2005,08,18,11,40,17.70
2005,08,18,11,41,17.70
2005,08,18,11,42,17.70
2005,08,18,11,43,17.70
2005,08,18,11,44,17.70
2005,08,18,11,45,17.60
2005,08,18,11,46,17.50
2005,08,18,11,47,17.50
2005,08,18,11,48,17.50
2005,08,18,11,49,17.50
2005,08,18,11,50,17.50
2005,08,18,11,51,17.50
2005,08,18,11,52,17.60
2005,08,18,11,53,17.70
2005,08,18,11,54,17.70
2005,08,18,11,55,17.60
2005,08,18,11,56,17.50
2005,08,18,11,57,17.50
2005,08,18,11,58,17.50
2005,08,18,11,59,17.50
2005,08,18,12,00,17.50
2005,08,18,12,01,17.60
2005,08,18,12,02,17.60
2005,08,18,12,03,17.50
2005,08,18,12,04,17.50
2005,08,18,12,05,17.50
2005,08,18,12,06,17.50
2005,08,18,12,07,17.40
2005,08,18,12,08,17.30
2005,08,18,12,09,17.30
2005,08,18,12,10,17.30
2005,08,18,12,11,17.40
2005,08,18,12,12,17.50
2005,08,18,12,13,17.50
2005,08,18,12,14,17.40
2005,08,18,12,15,17.20
2005,08,18,12,16,17.20
2005,08,18,12,17,17.20
2005,08,18,12,18,17.20
2005,08,18,12,19,17.10
2005,08,18,12,20,17.10
2005,08,18,12,21,17.30
2005,08,18,12,22,17.40
2005,08,18,12,23,17.50
2005,08,18,12,24,17.60
2005,08,18,12,25,17.60
2005,08,18,12,26,17.80
2005,08,18,12,27,17.90
2005,08,18,12,28,17.90
2005,08,18,12,29,18.00
2005,08,18,12,30,18.00
2005,08,18,12,31,18.10
2005,08,18,12,32,18.00
2005,08,18,12,33,17.90
2005,08,18,12,34,17.90
2005,08,18,12,35,17.90
2005,08,18,12,36,17.90
2005,08,18,12,37,17.90
2005,08,18,12,38,18.00
2005,08,18,12,39,18.00
2005,08,18,12,40,18.00
2005,08,18,12,41,18.10
2005,08,18,12,42,18.20
2005,08,18,12,43,18.30
2005,08,18,12,44,18.30
2005,08,18,12,45,18.30
2005,08,18,12,46,18.30
2005,08,18,12,47,18.30
2005,08,18,12,48,18.20
2005,08,18,12,49,18.00
2005,08,18,12,50,18.00
2005,08,18,12,51,18.20
2005,08,18,12,52,18.20
2005,08,18,12,53,18.30
2005,08,18,12,54,18.30
2005,08,18,12,55,18.40
2005,08,18,12,56,18.60
2005,08,18,12,57,18.70
2005,08,18,12,58,18.60
2005,08,18,12,59,18.40
2005,08,18,13,00,18.20
2005,08,18,13,01,18.10
2005,08,18,13,02,18.10
2005,08,18,13,03,18.20
2005,08,18,13,04,18.40
2005,08,18,13,05,18.40
2005,08,18,13,06,18.50
2005,08,18,13,07,18.80
2005,08,18,13,08,18.80
2005,08,18,13,09,18.80
2005,08,18,13,10,18.80
2005,08,18,13,11,18.80
2005,08,18,13,12,18.80
2005,08,18,13,13,18.90
2005,08,18,13,14,18.80
2005,08,18,13,15,18.60
2005,08,18,13,16,18.40
2005,08,18,13,17,18.30
2005,08,18,13,18,18.30
2005,08,18,13,19,18.30
2005,08,18,13,20,18.20
2005,08,18,13,21,18.10
2005,08,18,13,22,18.00
2005,08,18,13,23,17.80
2005,08,18,13,24,17.70
2005,08,18,13,25,17.60
2005,08,18,13,26,17.50
2005,08,18,13,27,17.60
2005,08,18,13,28,17.70
2005,08,18,13,29,17.80
2005,08,18,13,30,17.80
2005,08,18,13,31,17.90
2005,08,18,13,32,18.10
2005,08,18,13,33,18.20
2005,08,18,13,34,18.30
2005,08,18,13,35,18.30
2005,08,18,13,36,18.30
2005,08,18,13,37,18.30
2005,08,18,13,38,18.40
2005,08,18,13,39,18.40
2005,08,18,13,40,18.50
2005,08,18,13,41,18.60
2005,08,18,13,42,18.50
2005,08,18,13,43,18.50
2005,08,18,13,44,18.40
2005,08,18,13,45,18.20
2005,08,18,13,46,18.20
2005,08,18,13,47,18.30
2005,08,18,13,48,18.20
2005,08,18,13,49,18.10
2005,08,18,13,50,18.00
2005,08,18,13,51,17.90
2005,08,18,13,52,17.90
2005,08,18,13,53,17.90
2005,08,18,13,54,17.90
2005,08,18,13,55,17.90
2005,08,18,13,56,17.90
2005,08,18,13,57,17.90
2005,08,18,13,58,17.90
2005,08,18,13,59,17.90
2005,08,18,14,00,17.90
2005,08,18,14,01,18.10
2005,08,18,14,02,18.40
2005,08,18,14,03,18.50
2005,08,18,14,04,18.50
2005,08,18,14,05,18.60
2005,08,18,14,06,18.70
2005,08,18,14,07,18.80
2005,08,18,14,08,19.00
2005,08,18,14,09,19.20
2005,08,18,14,10,19.40
2005,08,18,14,11,19.40
2005,08,18,14,12,19.30
2005,08,18,14,13,19.30
2005,08,18,14,14,19.30
2005,08,18,14,15,19.20
2005,08,18,14,16,19.10
2005,08,18,14,17,19.00
2005,08,18,14,18,18.90
2005,08,18,14,19,18.90
2005,08,18,14,20,18.90
2005,08,18,14,21,19.00
2005,08,18,14,22,19.00
2005,08,18,14,23,19.10
2005,08,18,14,24,19.30
2005,08,18,14,25,19.50
2005,08,18,14,26,19.60
2005,08,18,14,27,19.70
2005,08,18,14,28,19.70
2005,08,18,14,29,19.70
2005,08,18,14,30,19.70
2005,08,18,14,31,19.60
2005,08,18,14,32,19.40
2005,08,18,14,33,19.30
2005,08,18,14,34,19.30
2005,08,18,14,35,19.30
2005,08,18,14,36,19.30
2005,08,18,14,37,19.20
2005,08,18,14,38,19.10
2005,08,18,14,39,19.10
2005,08,18,14,40,19.20
2005,08,18,14,41,19.30
2005,08,18,14,42,19.40
2005,08,18,14,43,19.40
2005,08,18,14,44,19.40
2005,08,18,14,45,19.30
2005,08,18,14,46,19.30
2005,08,18,14,47,19.20
2005,08,18,14,48,19.10
2005,08,18,14,49,19.10
2005,08,18,14,50,19.30
2005,08,18,14,51,19.30
2005,08,18,14,52,19.30
2005,08,18,14,53,19.30
2005,08,18,14,54,19.30
2005,08,18,14,55,19.40
2005,08,18,14,56,19.40
2005,08,18,14,57,19.50
2005,08,18,14,58,19.60
2005,08,18,14,59,19.70
2005,08,18,15,00,19.90
2005,08,18,15,01,20.10
2005,08,18,15,02,20.20
2005,08,18,15,03,20.20
2005,08,18,15,04,20.20
2005,08,18,15,05,20.10
2005,08,18,15,06,19.90
2005,08,18,15,07,19.90
2005,08,18,15,08,20.00
2005,08,18,15,09,20.10
2005,08,18,15,10,20.10
2005,08,18,15,11,20.10
2005,08,18,15,12,20.00
2005,08,18,15,13,19.90
2005,08,18,15,14,19.80
2005,08,18,15,15,19.60
2005,08,18,15,16,19.50
2005,08,18,15,17,19.40
2005,08,18,15,18,19.40
2005,08,18,15,19,19.40
2005,08,18,15,20,19.50
2005,08,18,15,21,19.60
2005,08,18,15,22,19.60
2005,08,18,15,23,19.70
2005,08,18,15,24,19.80
2005,08,18,15,25,19.70
2005,08,18,15,26,19.70
2005,08,18,15,27,19.70
2005,08,18,15,28,19.70
2005,08,18,15,29,19.80
2005,08,18,15,30,20.00
2005,08,18,15,31,20.10
2005,08,18,15,32,20.20
2005,08,18,15,33,20.20
2005,08,18,15,34,20.20
2005,08,18,15,35,20.20
2005,08,18,15,36,20.30
2005,08,18,15,37,20.40
2005,08,18,15,38,20.40
2005,08,18,15,39,20.50
2005,08,18,15,40,20.60
2005,08,18,15,41,20.70
2005,08,18,15,42,20.80
2005,08,18,15,43,20.70
2005,08,18,15,44,20.60
2005,08,18,15,45,20.50
2005,08,18,15,46,20.50
2005,08,18,15,47,20.50
2005,08,18,15,48,20.60
2005,08,18,15,49,20.70
2005,08,18,15,50,20.70
2005,08,18,15,51,20.70
2005,08,18,15,52,20.60
2005,08,18,15,53,20.60
2005,08,18,15,54,20.30
2005,08,18,15,55,20.30
2005,08,18,15,56,20.10
2005,08,18,15,57,19.90
2005,08,18,15,58,19.80
2005,08,18,15,59,19.70
2005,08,18,16,00,19.70
2005,08,18,16,01,19.70
2005,08,18,16,02,19.70
2005,08,18,16,03,19.60
2005,08,18,16,04,19.60
2005,08,18,16,05,19.60
2005,08,18,16,06,19.60
2005,08,18,16,07,19.80
2005,08,18,16,08,20.00
2005,08,18,16,09,20.20
2005,08,18,16,10,20.40
2005,08,18,16,11,20.50
2005,08,18,16,12,20.50
2005,08,18,16,13,20.50
2005,08,18,16,14,20.40
2005,08,18,16,15,20.30
2005,08,18,16,16,20.20
2005,08,18,16,17,20.20
2005,08,18,16,18,20.20
2005,08,18,16,19,20.20
2005,08,18,16,20,20.20
2005,08,18,16,21,20.20
2005,08,18,16,22,20.10
2005,08,18,16,23,20.10
2005,08,18,16,24,20.10
2005,08,18,16,25,20.20
2005,08,18,16,26,20.20
2005,08,18,16,27,20.20
2005,08,18,16,28,20.30
2005,08,18,16,29,20.40
2005,08,18,16,30,20.30
2005,08,18,16,31,20.20
2005,08,18,16,32,20.10
2005,08,18,16,33,20.00
2005,08,18,16,34,19.90
2005,08,18,16,35,19.80
2005,08,18,16,36,19.90
2005,08,18,16,37,19.80
2005,08,18,16,38,19.70
2005,08,18,16,39,19.70
2005,08,18,16,40,19.70
2005,08,18,16,41,19.70
2005,08,18,16,42,19.80
2005,08,18,16,43,19.90
2005,08,18,16,44,19.90
2005,08,18,16,45,19.90
2005,08,18,16,46,19.80
2005,08,18,16,47,19.80
2005,08,18,16,48,19.70
2005,08,18,16,49,19.70
2005,08,18,16,50,19.60
2005,08,18,16,51,19.60
2005,08,18,16,52,19.60
2005,08,18,16,53,19.60
2005,08,18,16,54,19.70
2005,08,18,16,55,19.70
2005,08,18,16,56,19.90
2005,08,18,16,57,19.90
2005,08,18,16,58,19.90
2005,08,18,16,59,19.90
2005,08,18,17,00,19.90
2005,08,18,17,01,19.90
2005,08,18,17,02,19.90
2005,08,18,17,03,19.90
2005,08,18,17,04,19.90
2005,08,18,17,05,19.90
2005,08,18,17,06,19.90
2005,08,18,17,07,19.90
2005,08,18,17,08,20.00
2005,08,18,17,09,20.10
2005,08,18,17,10,20.20
2005,08,18,17,11,20.20
2005,08,18,17,12,20.30
2005,08,18,17,13,20.40
2005,08,18,17,14,20.40
2005,08,18,17,15,20.50
2005,08,18,17,16,20.50
2005,08,18,17,17,20.50
2005,08,18,17,18,20.50
2005,08,18,17,19,20.50
2005,08,18,17,20,20.50
2005,08,18,17,21,20.50
2005,08,18,17,22,20.50
2005,08,18,17,23,20.60
2005,08,18,17,24,20.70
2005,08,18,17,25,20.70
2005,08,18,17,26,20.70
2005,08,18,17,27,20.70
2005,08,18,17,28,20.60
2005,08,18,17,29,20.50
2005,08,18,17,30,20.50
2005,08,18,17,31,20.40
2005,08,18,17,32,20.30
2005,08,18,17,33,20.30
2005,08,18,17,34,20.20
2005,08,18,17,35,20.20
2005,08,18,17,36,20.20
2005,08,18,17,37,20.30
2005,08,18,17,38,20.40
2005,08,18,17,39,20.50
2005,08,18,17,40,20.60
2005,08,18,17,41,20.70
2005,08,18,17,42,20.80
2005,08,18,17,43,20.80
2005,08,18,17,44,20.70
2005,08,18,17,45,20.50
2005,08,18,17,46,20.40
2005,08,18,17,47,20.40
2005,08,18,17,48,20.30
2005,08,18,17,49,20.30
2005,08,18,17,50,20.30
2005,08,18,17,51,20.30
2005,08,18,17,52,20.30
2005,08,18,17,53,20.20
2005,08,18,17,54,20.20
2005,08,18,17,55,20.20
2005,08,18,17,56,20.20
2005,08,18,17,57,20.20
2005,08,18,17,58,20.20
2005,08,18,17,59,20.20
2005,08,18,18,00,20.20
2005,08,18,18,01,20.30
2005,08,18,18,02,20.30
2005,08,18,18,03,20.30
2005,08,18,18,04,20.30
2005,08,18,18,05,20.20
2005,08,18,18,06,20.20
2005,08,18,18,07,20.20
2005,08,18,18,08,20.20
2005,08,18,18,09,20.20
2005,08,18,18,10,20.20
2005,08,18,18,11,20.00
2005,08,18,18,12,19.90
2005,08,18,18,13,19.90
2005,08,18,18,14,19.80
2005,08,18,18,15,19.80
2005,08,18,18,16,19.80
2005,08,18,18,17,19.80
2005,08,18,18,18,19.80
2005,08,18,18,19,19.80
2005,08,18,18,20,19.90
2005,08,18,18,21,19.90
2005,08,18,18,22,19.90
2005,08,18,18,23,19.90
2005,08,18,18,24,20.00
2005,08,18,18,25,20.10
2005,08,18,18,26,20.10
2005,08,18,18,27,20.10
2005,08,18,18,28,19.90
2005,08,18,18,29,19.90
2005,08,18,18,30,19.90
2005,08,18,18,31,19.90
2005,08,18,18,32,19.90
2005,08,18,18,33,19.90